Location: *
(37.5724°S, 58.0067°E)
Time: 09:39:22
(UTC+00:00)

Cosmos 1726 - Pass Details

Date: 25 January 2021
Orbit: 480 x 499 km, 82.5° (Epoch: 27 February)

Event Time Altitude Azimuth Distance (km) Brightness Sun altitude
Rises 23:00:08 0° 173° (S) 2,591 6.7 -22.3°
Reaches altitude 10° 23:02:35 10° 158° (SSE) 1,703 5.8 -22.0°
Maximum altitude 23:05:36 23° 104° (ESE) 1,098 4.4 -21.6°
Drops below altitude 10° 23:08:35 10° 49° (NE) 1,691 4.8 -21.2°
Enters shadow 23:09:39 - 41° (NE) 2,059 5.2 -21.1°
